Location: Quaker Farms
(41.4276°N, 73.1557°W)
Time: 10:06:51
(UTC+00:00)

Vanguard 2 - All Passes

Search period start: 15 June 2021 00:00
Search period end: 25 June 2021 00:00
Orbit: 552 x 2937 km, 32.9° (Epoch: 14 June)

Date Brightness Start Highest point End Pass type
(mag) Time Alt. Az. Time Alt. Az. Time Alt. Az.
15 Jun - 00:27:34 10° SW 00:36:04 37° S 00:41:32 10° ESE daylight
15 Jun - 02:38:16 10° WSW 02:44:17 34° S 02:48:30 10° SE visible
15 Jun - 04:49:23 10° WSW 04:51:37 13° SSW 04:53:39 10° S visible
15 Jun - 20:29:20 10° S 20:34:54 13° SSE 20:39:40 10° SE daylight
15 Jun - 22:34:46 10° SW 22:44:41 29° SSE 22:51:21 10° ESE daylight
16 Jun - 00:45:04 10° WSW 00:53:43 40° S 00:59:11 10° ESE daylight
16 Jun - 02:56:05 10° WSW 03:01:48 31° SSW 03:05:52 10° SE visible
16 Jun - 20:43:48 10° S 20:52:37 19° SSE 20:59:27 10° ESE daylight
16 Jun - 22:51:42 10° SW 23:02:23 35° SSE 23:09:18 10° ESE daylight
17 Jun - 01:02:42 10° WSW 01:11:21 43° S 01:16:47 10° ESE visible
17 Jun - 03:13:59 10° WSW 03:19:14 26° SSW 03:23:06 10° SE visible
17 Jun - 20:59:32 10° SSW 21:10:19 25° SSE 21:18:11 10° ESE daylight
17 Jun - 23:08:55 10° SW 23:20:05 41° S 23:27:04 10° ESE daylight
18 Jun - 01:20:26 10° WSW 01:28:57 43° S 01:34:18 10° ESE visible
18 Jun - 03:32:05 10° WSW 03:36:36 21° SSW 03:40:06 10° SSE visible
18 Jun - 19:11:20 10° S 19:17:49 14° SE 19:23:30 10° ESE daylight
18 Jun - 21:15:53 10° SSW 21:28:02 31° SSE 21:36:26 10° E daylight
18 Jun - 23:26:22 10° WSW 23:37:46 46° S 23:44:47 10° ESE daylight
19 Jun - 01:38:15 10° WSW 01:46:30 40° SSW 01:51:45 10° SE visible
19 Jun - 03:50:29 10° WSW 03:53:53 15° SSW 03:56:41 10° S visible
19 Jun - 19:25:26 10° S 19:35:27 19° SSE 19:43:37 10° ESE daylight
19 Jun - 21:32:41 10° SW 21:45:44 38° SSE 21:54:26 10° E daylight
19 Jun - 23:43:59 10° WSW 23:55:27 49° S 00:02:23 10° ESE daylight
20 Jun - 01:56:08 10° W 02:04:00 36° SSW 02:09:06 10° SE visible
20 Jun - 04:10:13 10° SW 04:11:05 10° SW 04:11:54 10° SSW visible
20 Jun - 19:40:53 10° SSW 19:53:05 26° SSE 20:02:33 10° ESE daylight
20 Jun - 21:49:47 10° SW 22:03:27 44° SSE 22:12:16 10° E daylight
21 Jun - 00:01:43 10° WSW 00:13:06 50° S 00:19:58 10° ESE daylight
21 Jun - 02:14:07 10° W 02:21:24 30° SSW 02:26:18 10° SE visible
21 Jun - 17:54:24 10° SSE 18:00:19 13° SE 18:05:49 10° ESE daylight
21 Jun - 19:57:01 10° SSW 20:10:44 32° SSE 20:20:56 10° E daylight
21 Jun - 22:07:09 10° WSW 22:21:09 49° S 22:30:01 10° E daylight
22 Jun - 00:19:32 10° W 00:30:43 49° S 00:37:27 10° ESE daylight
22 Jun - 02:32:14 10° W 02:38:43 25° SSW 02:43:16 10° SSE visible
22 Jun - 18:07:41 10° S 18:17:50 18° SE 18:26:46 10° ESE daylight
22 Jun - 20:13:39 10° SW 20:28:23 39° SSE 20:39:01 10° E daylight
22 Jun - 22:24:42 10° WSW 22:38:51 53° S 22:47:41 10° ESE daylight
23 Jun - 00:37:25 10° W 00:48:16 46° SSW 00:54:54 10° SE daylight
23 Jun - 02:50:38 10° WSW 02:55:55 19° SW 02:59:54 10° S visible
23 Jun - 18:22:46 10° SSW 18:35:20 25° SE 18:46:02 10° E daylight
23 Jun - 20:30:36 10° SW 20:46:04 45° SSE 20:56:56 10° E daylight
23 Jun - 22:42:24 10° WSW 22:56:33 55° S 23:05:18 10° ESE daylight
24 Jun - 00:55:22 10° W 01:05:45 41° SSW 01:12:13 10° SE visible
24 Jun - 03:09:40 10° WSW 03:13:00 13° SW 03:15:49 10° SSW visible
24 Jun - 16:40:37 10° SE 16:42:38 10° SE 16:44:37 10° SE daylight
24 Jun - 18:38:39 10° SSW 18:52:51 31° SSE 19:04:38 10° E daylight
24 Jun - 20:47:51 10° SW 21:03:46 51° SSE 21:14:44 10° E daylight
24 Jun - 23:00:12 10° WSW 23:14:14 56° S 23:22:51 10° ESE daylight
